DW0268 Weather Reports


time (UTC)temp
F
wind
direction
speed
knots
gust
knots
rain 1hr
in
rain 24hr
in
rain mn
in
humidity
%
barometer
mb
20240614111532 69 221 0.0 5.2 0.00 0.00 0.00 86 1017.2
20240614110029 69 217 3.5 4.3 0.00 0.00 0.00 87 1016.8
20240614104534 69 213 1.7 3.5 0.00 0.00 0.00 87 1017.2
20240614103034 69 211 2.6 4.3 0.00 0.00 0.00 86 1017.0
20240614101532 70 205 2.6 7.0 0.00 0.00 0.00 85 1016.7
20240614100025 70 226 5.2 8.7 0.00 0.00 0.00 85 1016.8
20240614094523 69 230 5.2 8.7 0.00 0.00 0.00 88 1016.8
20240614093029 69 215 7.0 9.6 0.00 0.00 0.00 89 1016.5
20240614091521 68 206 6.1 7.8 0.00 0.00 0.00 90 1016.7
20240614090025 68 209 5.2 6.1 0.00 0.00 0.00 90 1017.1
20240614084517 68 201 2.6 4.3 0.00 0.00 0.00 89 1017.2
20240614083015 69 244 0.0 0.0 0.00 0.00 0.00 89 1017.6
20240614081516 68 244 0.9 3.5 0.00 0.00 0.00 90 1017.6
20240614080021 68 215 0.9 5.2 0.00 0.00 0.00 90 1017.5
20240614074512 69 234 3.5 4.3 0.00 0.00 0.00 90 1017.8
20240614073008 69 162 2.6 3.5 0.00 0.00 0.00 88 1017.6
20240614071508 69 161 2.6 4.3 0.00 0.00 0.00 89 1018.0
20240614070010 69 152 0.9 1.7 0.00 0.00 0.00 88 1017.9
20240614064504 70 152 0.0 0.0 0.00 0.00 0.00 86 1018.1
20240614063002 70 152 0.0 0.9 0.00 0.00 0.00 86 1017.8
20240614061502 70 152 0.9 1.7 0.00 0.00 0.00 85 1017.9
20240614060101 70 152 0.9 2.6 0.00 0.00 0.00 86 1018.0
20240614054601 70 154 1.7 3.5 0.00 0.00 0.00 85 1018.2
20240614053056 71 175 0.0 0.9 0.00 0.00 0.00 83 1017.9
20240614051555 72 175 0.0 1.7 0.00 0.00 0.00 82 1017.5
20240614050050 73 175 0.0 1.7 0.00 0.00 0.00 80 1017.2
20240614044604 73 175 0.9 1.7 0.00 0.00 0.00 81 1017.1
20240614043048 73 175 0.9 3.5 0.00 0.00 0.00 80 1017.2
20240614041548 73 175 0.9 3.5 0.00 0.00 0.00 81 1017.1
20240614040047 73 166 2.6 4.3 0.00 0.00 0.00 81 1016.7
20240614034546 74 175 0.0 0.0 0.00 0.00 0.00 79 1017.0
20240614033058 75 175 0.9 2.6 0.00 0.00 0.00 78 1016.9
20240614031600 76 174 0.0 2.6 0.00 0.00 0.00 73 1016.5
20240614030045 76 174 2.6 4.3 0.00 0.00 0.00 72 1015.7
20240614024543 76 164 3.5 6.1 0.00 0.00 0.00 73 1015.4
20240614023054 77 180 2.6 4.3 0.00 0.00 0.00 72 1015.5
20240614021545 76 201 1.7 3.5 0.00 0.00 0.00 75 1015.4
20240614020042 77 195 3.5 4.3 0.00 0.00 0.00 74 1015.3
20240614014541 78 211 0.9 2.6 0.00 0.00 0.00 73 1015.5
20240614013040 79 211 2.6 4.3 0.00 0.00 0.00 72 1015.6
20240614011538 80 231 2.6 4.3 0.00 0.00 0.00 72 1015.7
20240614010037 82 156 0.0 0.0 0.00 0.00 0.00 67 1015.8
20240614004536 82 156 0.0 1.7 0.00 0.00 0.00 68 1015.7
20240614003034 83 153 0.0 2.6 0.00 0.00 0.00 66 1015.7
20240614001536 84 146 1.7 4.3 0.00 0.00 0.00 63 1015.7
20240614000035 85 157 1.7 4.3 0.00 0.00 0.00 62 1015.7
20240613234531 85 158 1.7 4.3 0.00 0.00 0.00 62 1015.8
20240613233031 86 140 1.7 3.5 0.00 0.00 0.00 60 1015.9
20240613231528 86 152 1.7 5.2 0.00 0.00 0.00 56 1016.1
20240613230026 86 171 2.6 4.3 0.00 0.00 0.00 58 1016.3
20240613224526 86 157 2.6 6.1 0.00 0.00 0.00 56 1016.3
20240613223024 87 171 3.5 6.1 0.00 0.00 0.00 57 1016.4
20240613221523 86 149 3.5 6.1 0.00 0.00 0.00 55 1016.6
20240613220028 86 168 3.5 6.1 0.00 0.00 0.00 53 1016.7
20240613214519 86 159 2.6 6.1 0.00 0.00 0.00 54 1016.9
20240613213019 86 185 4.3 8.7 0.00 0.00 0.00 54 1016.9
20240613211526 87 156 2.6 4.3 0.00 0.00 0.00 53 1016.9
20240613210018 87 167 2.6 7.0 0.00 0.00 0.00 55 1017.1
20240613204518 87 157 2.6 7.0 0.00 0.00 0.00 52 1017.2
20240613203015 87 159 3.5 5.2 0.00 0.00 0.00 50 1017.2
20240613201520 86 117 3.5 7.0 0.00 0.00 0.00 52 1017.3
20240613200014 86 157 3.5 7.0 0.00 0.00 0.00 55 1017.5
20240613194516 86 144 2.6 7.8 0.00 0.00 0.00 55 1017.5
20240613193017 86 144 3.5 7.0 0.00 0.00 0.00 53 1017.7
20240613191518 85 149 3.5 6.1 0.00 0.00 0.00 54 1017.7
20240613190010 85 145 2.6 6.1 0.00 0.00 0.00 52 1017.8
20240613184510 85 148 1.7 7.0 0.00 0.00 0.00 50 1018.0
20240613183005 85 145 1.7 6.1 0.00 0.00 0.00 52 1018.1
20240613181503 85 148 3.5 6.1 0.00 0.00 0.00 53 1018.3
20240613180105 84 142 2.6 6.1 0.00 0.00 0.00 49 1018.2
20240613174634 83 152 3.5 7.0 0.00 0.00 0.00 53 1018.4
20240613173058 83 210 4.3 6.1 0.00 0.00 0.00 52 1018.5
20240613171559 82 204 5.2 7.8 0.00 0.00 0.00 57 1018.5
20240613170058 83 206 2.6 6.1 0.00 0.00 0.00 55 1018.4
20240613164554 82 153 1.7 6.1 0.00 0.00 0.00 53 1018.2
20240613163057 82 132 0.9 6.1 0.00 0.00 0.00 54 1018.3
20240613161601 82 202 2.6 5.2 0.00 0.00 0.00 50 1018.5
20240613160100 81 136 2.6 5.2 0.00 0.00 0.00 53 1018.6
20240613154549 81 164 1.7 4.3 0.00 0.00 0.00 50 1018.6
20240613153048 79 199 2.6 5.2 0.00 0.00 0.00 56 1018.6
20240613151547 79 184 0.0 3.5 0.00 0.00 0.00 67 1018.4
20240613150043 78 184 1.7 3.5 0.00 0.00 0.00 65 1018.4
20240613144543 78 157 0.9 3.5 0.00 0.00 0.00 68 1018.5
20240613143038 78 206 0.9 2.6 0.00 0.00 0.00 70 1018.5
20240613141534 76 221 0.0 1.7 0.00 0.00 0.00 74 1018.6
20240613140032 76 221 0.0 2.6 0.00 0.00 0.00 75 1018.6
20240613134533 74 221 0.0 1.7 0.00 0.00 0.00 77 1018.7
20240613133024 73 221 0.0 1.7 0.00 0.00 0.00 81 1018.6
20240613131535 70 222 0.0 1.7 0.00 0.00 0.00 84 1018.6
20240613130020 69 222 1.7 3.5 0.00 0.00 0.00 85 1018.5
20240613124516 68 221 0.9 2.6 0.00 0.00 0.00 87 1018.6
20240613123014 67 165 0.0 0.0 0.00 0.00 0.00 88 1018.4
20240613121532 66 165 0.0 0.9 0.00 0.00 0.00 89 1018.2
20240613120013 65 165 0.0 0.0 0.00 0.00 0.00 90 1018.1
20240613114510 64 165 0.0 0.0 0.00 0.00 0.00 90 1018.0